• In Deutschland
  • Länderverzeichnis
  • Für 7 Tage
  • Wassertemperatur
  • Satellitenkarten
  • Wetterkarte
  • Widgets
  • user-avatar
    Anmelden

    Stündliche Wetter Akhaltsikhe

    Heute, 24 Oktober, Mittwoch

    Zeit Temperatur Niederschläge Wind Luftdruck Luftfeuchtigkeit
    00:00 +10°C° 0 mm 1 m/S 649 mmHg 79%
    01:00 +9°C° 0 mm 2 m/S 648 mmHg 79%
    02:00 +8°C° 0 mm 2 m/S 648 mmHg 80%
    03:00 +8°C° 0 mm 2 m/S 648 mmHg 80%
    04:00 +8°C° 0 mm 2 m/S 647 mmHg 80%
    05:00 +8°C° 0 mm 2 m/S 647 mmHg 81%
    06:00 +8°C° 0 mm 2 m/S 647 mmHg 81%
    07:00 +9°C° 0 mm 2 m/S 647 mmHg 76%
    08:00 +12°C° 0 mm 2 m/S 647 mmHg 71%
    09:00 +14°C° 0 mm 2 m/S 648 mmHg 66%
    10:00 +14°C° 0.1 mm 3 m/S 647 mmHg 61%
    11:00 +16°C° 0.1 mm 3 m/S 647 mmHg 56%
    12:00 +17°C° 0.1 mm 3 m/S 647 mmHg 51%
    13:00 +17°C° 0.3 mm 4 m/S 646 mmHg 52%
    14:00 +17°C° 0.3 mm 4 m/S 646 mmHg 53%
    15:00 +17°C° 0.3 mm 4 m/S 645 mmHg 54%
    16:00 +16°C° 0.4 mm 3 m/S 645 mmHg 60%
    17:00 +14°C° 0.4 mm 3 m/S 644 mmHg 66%
    18:00 +13°C° 0.4 mm 2 m/S 643 mmHg 73%
    19:00 +13°C° 0.1 mm 2 m/S 643 mmHg 74%
    20:00 +11°C° 0.1 mm 3 m/S 643 mmHg 76%
    21:00 +11°C° 0.1 mm 3 m/S 643 mmHg 78%
    22:00 +11°C° 0.3 mm 3 m/S 643 mmHg 79%
    23:00 +11°C° 0.3 mm 3 m/S 642 mmHg 80%

    Morgen, 25 Oktober, Donnerstag

    Zeit Temperatur Niederschläge Wind Luftdruck Luftfeuchtigkeit
    00:00 +11°C° 0.3 mm 3 m/S 642 mmHg 82%
    01:00 +11°C° 0.3 mm 3 m/S 642 mmHg 82%
    02:00 +10°C° 0.3 mm 3 m/S 641 mmHg 83%
    03:00 +10°C° 0.3 mm 3 m/S 641 mmHg 84%
    04:00 +10°C° 0.2 mm 3 m/S 641 mmHg 83%
    05:00 +10°C° 0.2 mm 3 m/S 641 mmHg 83%
    06:00 +10°C° 0.2 mm 3 m/S 640 mmHg 83%
    07:00 +11°C° 0.1 mm 3 m/S 640 mmHg 78%
    08:00 +12°C° 0.1 mm 4 m/S 640 mmHg 73%
    09:00 +13°C° 0.1 mm 4 m/S 640 mmHg 69%
    10:00 +14°C° 0.3 mm 5 m/S 640 mmHg 67%
    11:00 +14°C° 0.3 mm 5 m/S 640 mmHg 65%
    12:00 +14°C° 0.3 mm 5 m/S 640 mmHg 64%
    13:00 +14°C° 1.1 mm 6 m/S 639 mmHg 67%
    14:00 +13°C° 1.1 mm 6 m/S 639 mmHg 71%
    15:00 +12°C° 1.1 mm 7 m/S 639 mmHg 74%
    16:00 +10°C° 1.5 mm 5 m/S 639 mmHg 81%
    17:00 +10°C° 1.5 mm 4 m/S 639 mmHg 87%
    18:00 +9°C° 1.5 mm 2 m/S 639 mmHg 94%
    19:00 +8°C° 2.1 mm 3 m/S 640 mmHg 94%
    20:00 +7°C° 2.1 mm 3 m/S 640 mmHg 95%
    21:00 +7°C° 2.1 mm 3 m/S 640 mmHg 96%
    22:00 +5°C° 1.9 mm 3 m/S 640 mmHg 96%
    23:00 +5°C° 1.9 mm 3 m/S 641 mmHg 95%

    übermorgen, 26 Oktober, Freitag

    Zeit Temperatur Niederschläge Wind Luftdruck Luftfeuchtigkeit
    00:00 +4°C° 1.9 mm 3 m/S 641 mmHg 95%
    01:00 +4°C° 1.5 mm 3 m/S 641 mmHg 95%
    02:00 +4°C° 1.5 mm 2 m/S 642 mmHg 94%
    03:00 +4°C° 1.5 mm 2 m/S 642 mmHg 94%
    04:00 +4°C° 1.4 mm 2 m/S 642 mmHg 94%
    05:00 +3°C° 1.4 mm 2 m/S 642 mmHg 95%
    06:00 +3°C° 1.4 mm 2 m/S 643 mmHg 95%
    07:00 +3°C° 1.1 mm 2 m/S 643 mmHg 94%
    08:00 +3°C° 1.1 mm 2 m/S 644 mmHg 93%
    09:00 +3°C° 1.1 mm 2 m/S 645 mmHg 92%
    10:00 +4°C° 0.6 mm 2 m/S 645 mmHg 91%
    11:00 +4°C° 0.6 mm 2 m/S 645 mmHg 90%
    12:00 +4°C° 0.6 mm 2 m/S 645 mmHg 89%
    13:00 +4°C° 0.4 mm 2 m/S 646 mmHg 89%
    14:00 +4°C° 0.4 mm 2 m/S 646 mmHg 88%
    15:00 +4°C° 0.4 mm 2 m/S 646 mmHg 88%
    16:00 +4°C° 0.3 mm 2 m/S 647 mmHg 90%
    17:00 +3°C° 0.3 mm 2 m/S 647 mmHg 91%
    18:00 +4°C° 0.3 mm 1 m/S 648 mmHg 93%
    19:00 +4°C° 0.2 mm 1 m/S 648 mmHg 92%
    20:00 +4°C° 0.2 mm 1 m/S 649 mmHg 92%
    21:00 +3°C° 0.2 mm 2 m/S 649 mmHg 92%
    22:00 +2°C° 0.1 mm 2 m/S 650 mmHg 91%
    23:00 +2°C° 0.1 mm 2 m/S 650 mmHg 91%

    27 Oktober, Samstag

    Zeit Temperatur Niederschläge Wind Luftdruck Luftfeuchtigkeit
    00:00 +2°C° 0.1 mm 2 m/S 651 mmHg 90%
    01:00 +1°C° 0 mm 2 m/S 651 mmHg 90%
    02:00 +1°C° 0 mm 2 m/S 651 mmHg 90%
    03:00 +1°C° 0 mm 2 m/S 652 mmHg 89%
    04:00 +1°C° 0 mm 2 m/S 652 mmHg 89%
    05:00 +1°C° 0 mm 2 m/S 652 mmHg 88%
    06:00 +1°C° 0 mm 2 m/S 652 mmHg 87%
    07:00 +3°C° 0 mm 1 m/S 653 mmHg 85%
    08:00 +5°C° 0 mm 1 m/S 653 mmHg 83%
    09:00 +6°C° 0 mm 1 m/S 654 mmHg 80%
    10:00 +7°C° 0 mm 1 m/S 654 mmHg 78%
    11:00 +9°C° 0 mm 1 m/S 654 mmHg 76%
    12:00 +10°C° 0 mm 1 m/S 654 mmHg 73%
    13:00 +10°C° 0 mm 1 m/S 654 mmHg 72%
    14:00 +10°C° 0 mm 1 m/S 654 mmHg 71%
    15:00 +10°C° 0 mm 1 m/S 654 mmHg 71%
    16:00 +9°C° 0 mm 1 m/S 653 mmHg 73%
    17:00 +7°C° 0 mm 1 m/S 653 mmHg 76%
    18:00 +6°C° 0 mm 1 m/S 653 mmHg 79%
    19:00 +4°C° 0 mm 2 m/S 654 mmHg 77%
    20:00 +4°C° 0 mm 2 m/S 654 mmHg 75%
    21:00 +3°C° 0 mm 2 m/S 654 mmHg 74%
    22:00 +3°C° 0 mm 2 m/S 654 mmHg 72%
    23:00 +3°C° 0 mm 2 m/S 654 mmHg 71%

    28 Oktober, Sonntag

    Zeit Temperatur Niederschläge Wind Luftdruck Luftfeuchtigkeit
    00:00 +3°C° 0 mm 2 m/S 654 mmHg 70%
    01:00 +3°C° 0 mm 2 m/S 654 mmHg 69%
    02:00 +2°C° 0 mm 2 m/S 654 mmHg 68%
    03:00 +2°C° 0 mm 2 m/S 654 mmHg 67%
    04:00 +2°C° 0 mm 2 m/S 654 mmHg 66%
    05:00 +2°C° 0 mm 2 m/S 654 mmHg 65%
    06:00 +2°C° 0 mm 2 m/S 654 mmHg 64%
    07:00 +4°C° 0 mm 2 m/S 655 mmHg 63%
    08:00 +6°C° 0 mm 2 m/S 655 mmHg 61%
    09:00 +8°C° 0 mm 2 m/S 656 mmHg 60%
    10:00 +10°C° 0 mm 2 m/S 656 mmHg 57%
    11:00 +12°C° 0 mm 1 m/S 656 mmHg 55%
    12:00 +14°C° 0 mm 1 m/S 656 mmHg 52%
    13:00 +14°C° 0 mm 1 m/S 656 mmHg 52%
    14:00 +14°C° 0 mm 1 m/S 656 mmHg 52%
    15:00 +14°C° 0 mm 1 m/S 656 mmHg 52%
    16:00 +12°C° 0 mm 1 m/S 655 mmHg 55%
    17:00 +10°C° 0 mm 1 m/S 655 mmHg 58%
    18:00 +7°C° 0 mm 2 m/S 655 mmHg 61%
    19:00 +7°C° 0 mm 2 m/S 655 mmHg 59%
    20:00 +6°C° 0 mm 2 m/S 655 mmHg 58%
    21:00 +6°C° 0 mm 2 m/S 655 mmHg 57%
    22:00 +5°C° 0 mm 2 m/S 655 mmHg 55%
    23:00 +5°C° 0 mm 2 m/S 655 mmHg 53%

    29 Oktober, Montag

    Zeit Temperatur Niederschläge Wind Luftdruck Luftfeuchtigkeit
    00:00 +5°C° 0 mm 2 m/S 655 mmHg 52%
    01:00 +5°C° 0 mm 2 m/S 654 mmHg 51%
    02:00 +5°C° 0 mm 2 m/S 654 mmHg 51%
    03:00 +5°C° 0 mm 2 m/S 654 mmHg 50%
    04:00 +5°C° 0 mm 2 m/S 654 mmHg 50%
    05:00 +4°C° 0 mm 3 m/S 654 mmHg 50%
    06:00 +4°C° 0 mm 3 m/S 654 mmHg 49%
    07:00 +7°C° 0 mm 3 m/S 655 mmHg 49%
    08:00 +8°C° 0 mm 2 m/S 655 mmHg 49%
    09:00 +10°C° 0 mm 2 m/S 656 mmHg 49%
    10:00 +13°C° 0 mm 2 m/S 656 mmHg 47%
    11:00 +15°C° 0 mm 2 m/S 656 mmHg 45%
    12:00 +16°C° 0 mm 2 m/S 656 mmHg 43%
    13:00 +16°C° 0 mm 2 m/S 656 mmHg 44%
    14:00 +16°C° 0 mm 2 m/S 656 mmHg 44%
    15:00 +16°C° 0 mm 2 m/S 655 mmHg 45%
    16:00 +14°C° 0 mm 2 m/S 655 mmHg 47%
    17:00 +12°C° 0 mm 2 m/S 654 mmHg 50%
    18:00 +8°C° 0 mm 2 m/S 654 mmHg 53%
    19:00 +8°C° 0 mm 2 m/S 654 mmHg 51%
    20:00 +7°C° 0 mm 3 m/S 654 mmHg 49%
    21:00 +7°C° 0 mm 3 m/S 654 mmHg 47%
    22:00 +5°C° 0 mm 3 m/S 654 mmHg 46%
    23:00 +5°C° 0 mm 3 m/S 654 mmHg 46%

    30 Oktober, Dienstag

    Zeit Temperatur Niederschläge Wind Luftdruck Luftfeuchtigkeit
    00:00 +5°C° 0 mm 3 m/S 654 mmHg 45%
    01:00 +5°C° 0 mm 3 m/S 654 mmHg 44%
    02:00 +5°C° 0 mm 3 m/S 654 mmHg 44%
    03:00 +4°C° 0 mm 3 m/S 653 mmHg 44%
    04:00 +4°C° 0 mm 3 m/S 653 mmHg 43%
    05:00 +4°C° 0 mm 3 m/S 653 mmHg 43%
    06:00 +4°C° 0 mm 3 m/S 653 mmHg 42%
    07:00 +7°C° 0 mm 3 m/S 654 mmHg 42%
    08:00 +9°C° 0 mm 2 m/S 654 mmHg 42%
    09:00 +12°C° 0 mm 2 m/S 655 mmHg 42%
    10:00 +14°C° 0 mm 2 m/S 655 mmHg 40%
    11:00 +16°C° 0 mm 2 m/S 655 mmHg 37%
    12:00 +18°C° 0 mm 2 m/S 655 mmHg 35%
    13:00 +18°C° 0 mm 2 m/S 655 mmHg 35%
    14:00 +19°C° 0 mm 1 m/S 655 mmHg 36%
    15:00 +19°C° 0 mm 1 m/S 655 mmHg 36%
    16:00 +15°C° 0 mm 1 m/S 654 mmHg 40%
    17:00 +13°C° 0 mm 2 m/S 653 mmHg 44%
    18:00 +9°C° 0 mm 2 m/S 653 mmHg 48%
    19:00 +9°C° 0 mm 2 m/S 653 mmHg 47%
    20:00 +8°C° 0 mm 2 m/S 653 mmHg 46%
    21:00 +7°C° 0 mm 2 m/S 652 mmHg 45%
    22:00 +7°C° 0 mm 2 m/S 652 mmHg 44%
    23:00 +7°C° 0 mm 2 m/S 652 mmHg 42%
    Mehr zeigen